Year,Month,Day,Hour,Minute,Value (Times are PST for temperature in C)
2006,09,27,00,00,14.60
2006,09,27,00,01,14.60
2006,09,27,00,02,14.60
2006,09,27,00,03,14.60
2006,09,27,00,04,14.60
2006,09,27,00,05,14.60
2006,09,27,00,06,14.60
2006,09,27,00,07,14.60
2006,09,27,00,08,14.60
2006,09,27,00,09,14.60
2006,09,27,00,10,14.60
2006,09,27,00,11,14.60
2006,09,27,00,12,14.60
2006,09,27,00,13,14.60
2006,09,27,00,14,14.60
2006,09,27,00,15,14.60
2006,09,27,00,16,14.60
2006,09,27,00,17,14.60
2006,09,27,00,18,14.60
2006,09,27,00,19,14.60
2006,09,27,00,20,14.60
2006,09,27,00,21,14.60
2006,09,27,00,22,14.60
2006,09,27,00,23,14.60
2006,09,27,00,24,14.60
2006,09,27,00,25,14.60
2006,09,27,00,26,14.60
2006,09,27,00,27,14.60
2006,09,27,00,28,14.60
2006,09,27,00,29,14.50
2006,09,27,00,30,14.50
2006,09,27,00,31,14.50
2006,09,27,00,32,14.50
2006,09,27,00,33,14.50
2006,09,27,00,34,14.40
2006,09,27,00,35,14.40
2006,09,27,00,36,14.40
2006,09,27,00,37,14.40
2006,09,27,00,38,14.40
2006,09,27,00,39,14.40
2006,09,27,00,40,14.40
2006,09,27,00,41,14.50
2006,09,27,00,42,14.50
2006,09,27,00,43,14.50
2006,09,27,00,44,14.60
2006,09,27,00,45,14.60
2006,09,27,00,46,14.60
2006,09,27,00,47,14.60
2006,09,27,00,48,14.60
2006,09,27,00,49,14.60
2006,09,27,00,50,14.50
2006,09,27,00,51,14.50
2006,09,27,00,52,14.50
2006,09,27,00,53,14.50
2006,09,27,00,54,14.50
2006,09,27,00,55,14.40
2006,09,27,00,56,14.40
2006,09,27,00,57,14.30
2006,09,27,00,58,14.20
2006,09,27,00,59,14.20
2006,09,27,01,00,14.20
2006,09,27,01,01,14.20
2006,09,27,01,02,14.10
2006,09,27,01,03,14.10
2006,09,27,01,04,14.10
2006,09,27,01,05,14.00
2006,09,27,01,06,14.00
2006,09,27,01,07,14.00
2006,09,27,01,08,14.00
2006,09,27,01,09,13.90
2006,09,27,01,10,13.90
2006,09,27,01,11,13.90
2006,09,27,01,12,13.90
2006,09,27,01,13,13.80
2006,09,27,01,14,13.80
2006,09,27,01,15,13.80
2006,09,27,01,16,13.80
2006,09,27,01,17,13.70
2006,09,27,01,18,13.70
2006,09,27,01,19,13.70
2006,09,27,01,20,13.70
2006,09,27,01,21,13.70
2006,09,27,01,22,13.70
2006,09,27,01,23,13.70
2006,09,27,01,24,13.70
2006,09,27,01,25,13.70
2006,09,27,01,26,13.70
2006,09,27,01,27,13.70
2006,09,27,01,28,13.70
2006,09,27,01,29,13.70
2006,09,27,01,30,13.70
2006,09,27,01,31,13.70
2006,09,27,01,32,13.70
2006,09,27,01,33,13.70
2006,09,27,01,34,13.70
2006,09,27,01,35,13.70
2006,09,27,01,36,13.70
2006,09,27,01,37,13.70
2006,09,27,01,38,13.70
2006,09,27,01,39,13.70
2006,09,27,01,40,13.70
2006,09,27,01,41,13.60
2006,09,27,01,42,13.60
2006,09,27,01,43,13.60
2006,09,27,01,44,13.60
2006,09,27,01,45,13.50
2006,09,27,01,46,13.50
2006,09,27,01,47,13.50
2006,09,27,01,48,13.50
2006,09,27,01,49,13.40
2006,09,27,01,50,13.40
2006,09,27,01,51,13.40
2006,09,27,01,52,13.30
2006,09,27,01,53,13.30
2006,09,27,01,54,13.30
2006,09,27,01,55,13.30
2006,09,27,01,56,13.40
2006,09,27,01,57,13.40
2006,09,27,01,58,13.50
2006,09,27,01,59,13.50
2006,09,27,02,00,13.60
2006,09,27,02,01,13.60
2006,09,27,02,02,13.70
2006,09,27,02,03,13.70
2006,09,27,02,04,13.70
2006,09,27,02,05,13.80
2006,09,27,02,06,13.80
2006,09,27,02,07,13.80
2006,09,27,02,08,13.80
2006,09,27,02,09,13.80
2006,09,27,02,10,13.80
2006,09,27,02,11,13.80
2006,09,27,02,12,13.80
2006,09,27,02,13,13.80
2006,09,27,02,14,13.80
2006,09,27,02,15,13.80
2006,09,27,02,16,13.80
2006,09,27,02,17,13.80
2006,09,27,02,18,13.70
2006,09,27,02,19,13.70
2006,09,27,02,20,13.70
2006,09,27,02,21,13.70
2006,09,27,02,22,13.70
2006,09,27,02,23,13.70
2006,09,27,02,24,13.60
2006,09,27,02,25,13.60
2006,09,27,02,26,13.60
2006,09,27,02,27,13.60
2006,09,27,02,28,13.60
2006,09,27,02,29,13.50
2006,09,27,02,30,13.50
2006,09,27,02,31,13.60
2006,09,27,02,32,13.60
2006,09,27,02,33,13.60
2006,09,27,02,34,13.60
2006,09,27,02,35,13.50
2006,09,27,02,36,13.50
2006,09,27,02,37,13.40
2006,09,27,02,38,13.40
2006,09,27,02,39,13.30
2006,09,27,02,40,13.30
2006,09,27,02,41,13.30
2006,09,27,02,42,13.20
2006,09,27,02,43,13.10
2006,09,27,02,44,13.00
2006,09,27,02,45,13.00
2006,09,27,02,46,12.90
2006,09,27,02,47,12.90
2006,09,27,02,48,12.80
2006,09,27,02,49,12.80
2006,09,27,02,50,12.80
2006,09,27,02,51,12.80
2006,09,27,02,52,12.80
2006,09,27,02,53,12.80
2006,09,27,02,54,12.80
2006,09,27,02,55,12.70
2006,09,27,02,56,12.70
2006,09,27,02,57,12.70
2006,09,27,02,58,12.70
2006,09,27,02,59,12.70
2006,09,27,03,00,12.70
2006,09,27,03,01,12.70
2006,09,27,03,02,12.70
2006,09,27,03,03,12.60
2006,09,27,03,04,12.60
2006,09,27,03,05,12.60
2006,09,27,03,06,12.60
2006,09,27,03,07,12.60
2006,09,27,03,08,12.60
2006,09,27,03,09,12.60
2006,09,27,03,10,12.60
2006,09,27,03,11,12.60
2006,09,27,03,12,12.60
2006,09,27,03,13,12.60
2006,09,27,03,14,12.60
2006,09,27,03,15,12.60
2006,09,27,03,16,12.60
2006,09,27,03,17,12.60
2006,09,27,03,18,12.60
2006,09,27,03,19,12.50
2006,09,27,03,20,12.50
2006,09,27,03,21,12.40
2006,09,27,03,22,12.40
2006,09,27,03,23,12.40
2006,09,27,03,24,12.40
2006,09,27,03,25,12.40
2006,09,27,03,26,12.40
2006,09,27,03,27,12.40
2006,09,27,03,28,12.40
2006,09,27,03,29,12.40
2006,09,27,03,30,12.30
2006,09,27,03,31,12.30
2006,09,27,03,32,12.30
2006,09,27,03,33,12.30
2006,09,27,03,34,12.30
2006,09,27,03,35,12.30
2006,09,27,03,36,12.30
2006,09,27,03,37,12.30
2006,09,27,03,38,12.30
2006,09,27,03,39,12.30
2006,09,27,03,40,12.30
2006,09,27,03,41,12.30
2006,09,27,03,42,12.30
2006,09,27,03,43,12.30
2006,09,27,03,44,12.30
2006,09,27,03,45,12.30
2006,09,27,03,46,12.30
2006,09,27,03,47,12.30
2006,09,27,03,48,12.30
2006,09,27,03,49,12.20
2006,09,27,03,50,12.20
2006,09,27,03,51,12.20
2006,09,27,03,52,12.20
2006,09,27,03,53,12.30
2006,09,27,03,54,12.30
2006,09,27,03,55,12.30
2006,09,27,03,56,12.20
2006,09,27,03,57,12.20
2006,09,27,03,58,12.20
2006,09,27,03,59,12.20
2006,09,27,04,00,12.10
2006,09,27,04,01,12.10
2006,09,27,04,02,12.00
2006,09,27,04,03,12.00
2006,09,27,04,04,12.00
2006,09,27,04,05,12.00
2006,09,27,04,06,12.00
2006,09,27,04,07,11.90
2006,09,27,04,08,11.90
2006,09,27,04,09,11.90
2006,09,27,04,10,11.80
2006,09,27,04,11,11.80
2006,09,27,04,12,11.80
2006,09,27,04,13,11.80
2006,09,27,04,14,11.80
2006,09,27,04,15,11.80
2006,09,27,04,16,11.80
2006,09,27,04,17,11.80
2006,09,27,04,18,11.90
2006,09,27,04,19,11.90
2006,09,27,04,20,11.90
2006,09,27,04,21,11.90
2006,09,27,04,22,11.90
2006,09,27,04,23,11.90
2006,09,27,04,24,11.90
2006,09,27,04,25,11.90
2006,09,27,04,26,11.90
2006,09,27,04,27,11.90
2006,09,27,04,28,11.90
2006,09,27,04,29,11.90
2006,09,27,04,30,11.90
2006,09,27,04,31,11.90
2006,09,27,04,32,11.90
2006,09,27,04,33,11.90
2006,09,27,04,34,11.90
2006,09,27,04,35,11.90
2006,09,27,04,36,11.90
2006,09,27,04,37,11.90
2006,09,27,04,38,11.90
2006,09,27,04,39,11.80
2006,09,27,04,40,11.90
2006,09,27,04,41,11.90
2006,09,27,04,42,11.90
2006,09,27,04,43,12.00
2006,09,27,04,44,12.00
2006,09,27,04,45,12.00
2006,09,27,04,46,12.00
2006,09,27,04,47,12.00
2006,09,27,04,48,12.00
2006,09,27,04,49,12.00
2006,09,27,04,50,12.00
2006,09,27,04,51,12.00
2006,09,27,04,52,11.90
2006,09,27,04,53,11.90
2006,09,27,04,54,11.90
2006,09,27,04,55,11.90
2006,09,27,04,56,11.90
2006,09,27,04,57,11.90
2006,09,27,04,58,11.90
2006,09,27,04,59,11.90
2006,09,27,05,00,11.90
2006,09,27,05,01,12.00
2006,09,27,05,02,12.00
2006,09,27,05,03,12.00
2006,09,27,05,04,12.00
2006,09,27,05,05,12.00
2006,09,27,05,06,12.00
2006,09,27,05,07,12.00
2006,09,27,05,08,12.00
2006,09,27,05,09,12.00
2006,09,27,05,10,12.00
2006,09,27,05,11,12.10
2006,09,27,05,12,12.10
2006,09,27,05,13,12.10
2006,09,27,05,14,12.10
2006,09,27,05,15,12.10
2006,09,27,05,16,12.10
2006,09,27,05,17,12.10
2006,09,27,05,18,12.10
2006,09,27,05,19,12.10
2006,09,27,05,20,12.10
2006,09,27,05,21,12.10
2006,09,27,05,22,12.20
2006,09,27,05,23,12.30
2006,09,27,05,24,12.30
2006,09,27,05,25,12.40
2006,09,27,05,26,12.50
2006,09,27,05,27,12.50
2006,09,27,05,28,12.60
2006,09,27,05,29,12.70
2006,09,27,05,30,12.70
2006,09,27,05,31,12.70
2006,09,27,05,32,12.70
2006,09,27,05,33,12.60
2006,09,27,05,34,12.60
2006,09,27,05,35,12.60
2006,09,27,05,36,12.50
2006,09,27,05,37,12.50
2006,09,27,05,38,12.50
2006,09,27,05,39,12.40
2006,09,27,05,40,12.40
2006,09,27,05,41,12.40
2006,09,27,05,42,12.40
2006,09,27,05,43,12.30
2006,09,27,05,44,12.40
2006,09,27,05,45,12.40
2006,09,27,05,46,12.40
2006,09,27,05,47,12.40
2006,09,27,05,48,12.40
2006,09,27,05,49,12.40
2006,09,27,05,50,12.40
2006,09,27,05,51,12.40
2006,09,27,05,52,12.40
2006,09,27,05,53,12.40
2006,09,27,05,54,12.40
2006,09,27,05,55,12.40
2006,09,27,05,56,12.30
2006,09,27,05,57,12.30
2006,09,27,05,58,12.30
2006,09,27,05,59,12.30
2006,09,27,06,00,12.30
2006,09,27,06,01,12.30
2006,09,27,06,02,12.30
2006,09,27,06,03,12.30
2006,09,27,06,04,12.30
2006,09,27,06,05,12.30
2006,09,27,06,06,12.30
2006,09,27,06,07,12.30
2006,09,27,06,08,12.30
2006,09,27,06,09,12.30
2006,09,27,06,10,12.30
2006,09,27,06,11,12.30
2006,09,27,06,12,12.30
2006,09,27,06,13,12.30
2006,09,27,06,14,12.30
2006,09,27,06,15,12.30
2006,09,27,06,16,12.30
2006,09,27,06,17,12.40
2006,09,27,06,18,12.40
2006,09,27,06,19,12.40
2006,09,27,06,20,12.50
2006,09,27,06,21,12.50
2006,09,27,06,22,12.50
2006,09,27,06,23,12.50
2006,09,27,06,24,12.40
2006,09,27,06,25,12.30
2006,09,27,06,26,12.30
2006,09,27,06,27,12.40
2006,09,27,06,28,12.40
2006,09,27,06,29,12.40
2006,09,27,06,30,12.50
2006,09,27,06,31,12.50
2006,09,27,06,32,12.50
2006,09,27,06,33,12.50
2006,09,27,06,34,12.50
2006,09,27,06,35,12.50
2006,09,27,06,36,12.50
2006,09,27,06,37,12.50
2006,09,27,06,38,12.50
2006,09,27,06,39,12.50
2006,09,27,06,40,12.50
2006,09,27,06,41,12.50
2006,09,27,06,42,12.50
2006,09,27,06,43,12.50
2006,09,27,06,44,12.50
2006,09,27,06,45,12.50
2006,09,27,06,46,12.50
2006,09,27,06,47,12.50
2006,09,27,06,48,12.50
2006,09,27,06,49,12.50
2006,09,27,06,50,12.50
2006,09,27,06,51,12.50
2006,09,27,06,52,12.50
2006,09,27,06,53,12.50
2006,09,27,06,54,12.50
2006,09,27,06,55,12.50
2006,09,27,06,56,12.50
2006,09,27,06,57,12.60
2006,09,27,06,58,12.60
2006,09,27,06,59,12.60
2006,09,27,07,00,12.60
2006,09,27,07,01,12.70
2006,09,27,07,02,12.70
2006,09,27,07,03,12.70
2006,09,27,07,04,12.80
2006,09,27,07,05,12.80
2006,09,27,07,06,12.80
2006,09,27,07,07,12.70
2006,09,27,07,08,12.70
2006,09,27,07,09,12.60
2006,09,27,07,10,12.60
2006,09,27,07,11,12.50
2006,09,27,07,12,12.50
2006,09,27,07,13,12.40
2006,09,27,07,14,12.40
2006,09,27,07,15,12.30
2006,09,27,07,16,12.30
2006,09,27,07,17,12.30
2006,09,27,07,18,12.30
2006,09,27,07,19,12.30
2006,09,27,07,20,12.30
2006,09,27,07,21,12.30
2006,09,27,07,22,12.30
2006,09,27,07,23,12.30
2006,09,27,07,24,12.30
2006,09,27,07,25,12.40
2006,09,27,07,26,12.40
2006,09,27,07,27,12.40
2006,09,27,07,28,12.40
2006,09,27,07,29,12.40
2006,09,27,07,30,12.40
2006,09,27,07,31,12.40
2006,09,27,07,32,12.50
2006,09,27,07,33,12.50
2006,09,27,07,34,12.50
2006,09,27,07,35,12.50
2006,09,27,07,36,12.50
2006,09,27,07,37,12.60
2006,09,27,07,38,12.60
2006,09,27,07,39,12.70
2006,09,27,07,40,12.70
2006,09,27,07,41,12.80
2006,09,27,07,42,12.80
2006,09,27,07,43,12.80
2006,09,27,07,44,12.80
2006,09,27,07,45,12.80
2006,09,27,07,46,12.80
2006,09,27,07,47,12.80
2006,09,27,07,48,12.90
2006,09,27,07,49,12.90
2006,09,27,07,50,12.90
2006,09,27,07,51,12.90
2006,09,27,07,52,13.00
2006,09,27,07,53,13.00
2006,09,27,07,54,13.10
2006,09,27,07,55,13.20
2006,09,27,07,56,13.20
2006,09,27,07,57,13.30
2006,09,27,07,58,13.30
2006,09,27,07,59,13.30
2006,09,27,08,00,13.40
2006,09,27,08,01,13.50
2006,09,27,08,02,13.60
2006,09,27,08,03,13.70
2006,09,27,08,04,13.70
2006,09,27,08,05,13.80
2006,09,27,08,06,13.90
2006,09,27,08,07,14.00
2006,09,27,08,08,14.10
2006,09,27,08,09,14.20
2006,09,27,08,10,14.20
2006,09,27,08,11,14.30
2006,09,27,08,12,14.40
2006,09,27,08,13,14.40
2006,09,27,08,14,14.50
2006,09,27,08,15,14.60
2006,09,27,08,16,14.60
2006,09,27,08,17,14.70
2006,09,27,08,18,14.70
2006,09,27,08,19,14.70
2006,09,27,08,20,14.70
2006,09,27,08,21,14.70
2006,09,27,08,22,14.80
2006,09,27,08,23,14.80
2006,09,27,08,24,14.80
2006,09,27,08,25,14.80
2006,09,27,08,26,14.80
2006,09,27,08,27,14.80
2006,09,27,08,28,14.80
2006,09,27,08,29,14.80
2006,09,27,08,30,14.80
2006,09,27,08,31,14.80
2006,09,27,08,32,14.80
2006,09,27,08,33,14.90
2006,09,27,08,34,15.00
2006,09,27,08,35,15.00
2006,09,27,08,36,15.10
2006,09,27,08,37,15.20
2006,09,27,08,38,15.30
2006,09,27,08,39,15.30
2006,09,27,08,40,15.40
2006,09,27,08,41,15.50
2006,09,27,08,42,15.50
2006,09,27,08,43,15.60
2006,09,27,08,44,15.60
2006,09,27,08,45,15.70
2006,09,27,08,46,15.80
2006,09,27,08,47,15.80
2006,09,27,08,48,15.90
2006,09,27,08,49,16.00
2006,09,27,08,50,16.10
2006,09,27,08,51,16.10
2006,09,27,08,52,16.00
2006,09,27,08,53,15.90
2006,09,27,08,54,15.80
2006,09,27,08,55,15.80
2006,09,27,08,56,15.70
2006,09,27,08,57,15.70
2006,09,27,08,58,15.70
2006,09,27,08,59,15.80
2006,09,27,09,00,15.80
2006,09,27,09,01,15.80
2006,09,27,09,02,15.80
2006,09,27,09,03,15.80
2006,09,27,09,04,15.80
2006,09,27,09,05,15.80
2006,09,27,09,06,15.80
2006,09,27,09,07,15.80
2006,09,27,09,08,15.80
2006,09,27,09,09,15.80
2006,09,27,09,10,15.80
2006,09,27,09,11,15.80
2006,09,27,09,12,15.90
2006,09,27,09,13,15.90
2006,09,27,09,14,15.90
2006,09,27,09,15,16.00
2006,09,27,09,16,16.10
2006,09,27,09,17,16.10
2006,09,27,09,18,16.20
2006,09,27,09,19,16.20
2006,09,27,09,20,16.20
2006,09,27,09,21,16.20
2006,09,27,09,22,16.20
2006,09,27,09,23,16.30
2006,09,27,09,24,16.30
2006,09,27,09,25,16.40
2006,09,27,09,26,16.40
2006,09,27,09,27,16.40
2006,09,27,09,28,16.40
2006,09,27,09,29,16.40
2006,09,27,09,30,16.40
2006,09,27,09,31,16.40
2006,09,27,09,32,16.40
2006,09,27,09,33,16.40
2006,09,27,09,34,16.40
2006,09,27,09,35,16.50
2006,09,27,09,36,16.60
2006,09,27,09,37,16.60
2006,09,27,09,38,16.60
2006,09,27,09,39,16.60
2006,09,27,09,40,16.60
2006,09,27,09,41,16.70
2006,09,27,09,42,16.80
2006,09,27,09,43,16.80
2006,09,27,09,44,16.90
2006,09,27,09,45,16.90
2006,09,27,09,46,17.00
2006,09,27,09,47,17.10
2006,09,27,09,48,17.10
2006,09,27,09,49,17.20
2006,09,27,09,50,17.30
2006,09,27,09,51,17.30
2006,09,27,09,52,17.40
2006,09,27,09,53,17.50
2006,09,27,09,54,17.60
2006,09,27,09,55,17.70
2006,09,27,09,56,17.90
2006,09,27,09,57,18.00
2006,09,27,09,58,18.10
2006,09,27,09,59,18.20
2006,09,27,10,00,18.30
2006,09,27,10,01,18.40
2006,09,27,10,02,18.50
2006,09,27,10,03,18.60
2006,09,27,10,04,18.70
2006,09,27,10,05,18.70
2006,09,27,10,06,18.80
2006,09,27,10,07,18.80
2006,09,27,10,08,18.90
2006,09,27,10,09,18.90
2006,09,27,10,10,18.90
2006,09,27,10,11,18.90
2006,09,27,10,12,19.00
2006,09,27,10,13,19.10
2006,09,27,10,14,19.10
2006,09,27,10,15,19.10
2006,09,27,10,16,19.10
2006,09,27,10,17,19.20
2006,09,27,10,18,19.20
2006,09,27,10,19,19.20
2006,09,27,10,20,19.30
2006,09,27,10,21,19.30
2006,09,27,10,22,19.30
2006,09,27,10,23,19.40
2006,09,27,10,24,19.40
2006,09,27,10,25,19.50
2006,09,27,10,26,19.50
2006,09,27,10,27,19.50
2006,09,27,10,28,19.50
2006,09,27,10,29,19.60
2006,09,27,10,30,19.70
2006,09,27,10,31,19.70
2006,09,27,10,32,19.70
2006,09,27,10,33,19.70
2006,09,27,10,34,19.80
2006,09,27,10,35,19.80
2006,09,27,10,36,19.90
2006,09,27,10,37,19.90
2006,09,27,10,38,19.90
2006,09,27,10,39,19.90
2006,09,27,10,40,19.90
2006,09,27,10,41,20.10
2006,09,27,10,42,20.10
2006,09,27,10,43,20.10
2006,09,27,10,44,20.20
2006,09,27,10,45,20.20
2006,09,27,10,46,20.20
2006,09,27,10,47,20.20
2006,09,27,10,48,20.20
2006,09,27,10,49,20.30
2006,09,27,10,50,20.30
2006,09,27,10,51,20.30
2006,09,27,10,52,20.30
2006,09,27,10,53,20.40
2006,09,27,10,54,20.40
2006,09,27,10,55,20.40
2006,09,27,10,56,20.40
2006,09,27,10,57,20.40
2006,09,27,10,58,20.50
2006,09,27,10,59,20.50
2006,09,27,11,00,20.40
2006,09,27,11,01,20.40
2006,09,27,11,02,20.20
2006,09,27,11,03,19.90
2006,09,27,11,04,19.70
2006,09,27,11,05,19.50
2006,09,27,11,06,19.20
2006,09,27,11,07,19.00
2006,09,27,11,08,18.90
2006,09,27,11,09,18.60
2006,09,27,11,10,18.40
2006,09,27,11,11,18.30
2006,09,27,11,12,18.20
2006,09,27,11,13,18.20
2006,09,27,11,14,18.30
2006,09,27,11,15,18.40
2006,09,27,11,16,18.40
2006,09,27,11,17,18.50
2006,09,27,11,18,18.60
2006,09,27,11,19,18.70
2006,09,27,11,20,18.90
2006,09,27,11,21,19.00
2006,09,27,11,22,19.10
2006,09,27,11,23,19.20
2006,09,27,11,24,19.30
2006,09,27,11,25,19.30
2006,09,27,11,26,19.30
2006,09,27,11,27,19.20
2006,09,27,11,28,19.20
2006,09,27,11,29,19.10
2006,09,27,11,30,18.80
2006,09,27,11,31,18.60
2006,09,27,11,32,18.50
2006,09,27,11,33,18.50
2006,09,27,11,34,18.50
2006,09,27,11,35,18.50
2006,09,27,11,36,18.60
2006,09,27,11,37,18.60
2006,09,27,11,38,18.70
2006,09,27,11,39,18.80
2006,09,27,11,40,18.80
2006,09,27,11,41,18.90
2006,09,27,11,42,18.90
2006,09,27,11,43,19.10
2006,09,27,11,44,19.10
2006,09,27,11,45,19.10
2006,09,27,11,46,19.20
2006,09,27,11,47,19.20
2006,09,27,11,48,19.30
2006,09,27,11,49,19.40
2006,09,27,11,50,19.40
2006,09,27,11,51,19.50
2006,09,27,11,52,19.50
2006,09,27,11,53,19.60
2006,09,27,11,54,19.70
2006,09,27,11,55,19.80
2006,09,27,11,56,19.90
2006,09,27,11,57,20.00
2006,09,27,11,58,20.10
2006,09,27,11,59,20.10
2006,09,27,12,00,20.20
2006,09,27,12,01,20.40
2006,09,27,12,02,20.50
2006,09,27,12,03,20.50
2006,09,27,12,04,20.60
2006,09,27,12,05,20.70
2006,09,27,12,06,20.70
2006,09,27,12,07,20.80
2006,09,27,12,08,20.90
2006,09,27,12,09,20.90
2006,09,27,12,10,20.90
2006,09,27,12,11,21.00
2006,09,27,12,12,21.00
2006,09,27,12,13,21.10
2006,09,27,12,14,21.20
2006,09,27,12,15,21.30
2006,09,27,12,16,21.30
2006,09,27,12,17,21.40
2006,09,27,12,18,21.40
2006,09,27,12,19,21.50
2006,09,27,12,20,21.60
2006,09,27,12,21,21.60
2006,09,27,12,22,21.60
2006,09,27,12,23,21.60
2006,09,27,12,24,21.50
2006,09,27,12,25,21.20
2006,09,27,12,26,20.70
2006,09,27,12,27,20.00
2006,09,27,12,28,19.30
2006,09,27,12,29,18.90
2006,09,27,12,30,18.60
2006,09,27,12,31,18.40
2006,09,27,12,32,18.20
2006,09,27,12,33,18.20
2006,09,27,12,34,18.10
2006,09,27,12,35,18.10
2006,09,27,12,36,18.10
2006,09,27,12,37,18.10
2006,09,27,12,38,18.10
2006,09,27,12,39,18.10
2006,09,27,12,40,18.20
2006,09,27,12,41,18.30
2006,09,27,12,42,18.30
2006,09,27,12,43,18.20
2006,09,27,12,44,18.00
2006,09,27,12,45,17.90
2006,09,27,12,46,17.90
2006,09,27,12,47,17.90
2006,09,27,12,48,17.80
2006,09,27,12,49,17.80
2006,09,27,12,50,17.90
2006,09,27,12,51,17.90
2006,09,27,12,52,18.00
2006,09,27,12,53,18.20
2006,09,27,12,54,18.30
2006,09,27,12,55,18.50
2006,09,27,12,56,18.50
2006,09,27,12,57,18.50
2006,09,27,12,58,18.40
2006,09,27,12,59,18.20
2006,09,27,13,00,18.20
2006,09,27,13,01,17.90
2006,09,27,13,02,17.60
2006,09,27,13,03,17.40
2006,09,27,13,04,17.30
2006,09,27,13,05,17.30
2006,09,27,13,06,17.40
2006,09,27,13,07,17.60
2006,09,27,13,08,17.60
2006,09,27,13,09,17.50
2006,09,27,13,10,17.50
2006,09,27,13,11,17.60
2006,09,27,13,12,17.70
2006,09,27,13,13,17.70
2006,09,27,13,14,17.90
2006,09,27,13,15,18.00
2006,09,27,13,16,18.20
2006,09,27,13,17,18.30
2006,09,27,13,18,18.40
2006,09,27,13,19,18.50
2006,09,27,13,20,18.60
2006,09,27,13,21,18.80
2006,09,27,13,22,18.90
2006,09,27,13,23,18.90
2006,09,27,13,24,19.00
2006,09,27,13,25,18.90
2006,09,27,13,26,18.90
2006,09,27,13,27,18.80
2006,09,27,13,28,18.90
2006,09,27,13,29,18.90
2006,09,27,13,30,19.00
2006,09,27,13,31,19.10
2006,09,27,13,32,19.10
2006,09,27,13,33,19.20
2006,09,27,13,34,19.30
2006,09,27,13,35,19.30
2006,09,27,13,36,19.40
2006,09,27,13,37,19.50
2006,09,27,13,38,19.70
2006,09,27,13,39,19.80
2006,09,27,13,40,19.90
2006,09,27,13,41,19.90
2006,09,27,13,42,19.90
2006,09,27,13,43,20.10
2006,09,27,13,44,20.20
2006,09,27,13,45,20.30
2006,09,27,13,46,20.40
2006,09,27,13,47,20.40
2006,09,27,13,48,20.40
2006,09,27,13,49,20.40
2006,09,27,13,50,20.40
2006,09,27,13,51,20.20
2006,09,27,13,52,20.20
2006,09,27,13,53,20.00
2006,09,27,13,54,19.80
2006,09,27,13,55,19.60
2006,09,27,13,56,19.40
2006,09,27,13,57,19.20
2006,09,27,13,58,19.10
2006,09,27,13,59,18.90
2006,09,27,14,00,18.80
2006,09,27,14,01,18.80
2006,09,27,14,02,18.90
2006,09,27,14,03,18.90
2006,09,27,14,04,18.80
2006,09,27,14,05,18.60
2006,09,27,14,06,18.40
2006,09,27,14,07,18.20
2006,09,27,14,08,18.20
2006,09,27,14,09,18.00
2006,09,27,14,10,17.80
2006,09,27,14,11,17.70
2006,09,27,14,12,17.60
2006,09,27,14,13,17.50
2006,09,27,14,14,17.60
2006,09,27,14,15,17.70
2006,09,27,14,16,17.80
2006,09,27,14,17,17.90
2006,09,27,14,18,17.90
2006,09,27,14,19,17.90
2006,09,27,14,20,17.90
2006,09,27,14,21,17.80
2006,09,27,14,22,17.80
2006,09,27,14,23,17.80
2006,09,27,14,24,17.80
2006,09,27,14,25,18.00
2006,09,27,14,26,18.10
2006,09,27,14,27,18.30
2006,09,27,14,28,18.40
2006,09,27,14,29,18.50
2006,09,27,14,30,18.50
2006,09,27,14,31,18.60
2006,09,27,14,32,18.70
2006,09,27,14,33,18.80
2006,09,27,14,34,18.90
2006,09,27,14,35,19.00
2006,09,27,14,36,19.10
2006,09,27,14,37,19.10
2006,09,27,14,38,19.10
2006,09,27,14,39,19.10
2006,09,27,14,40,18.90
2006,09,27,14,41,18.90
2006,09,27,14,42,18.90
2006,09,27,14,43,18.90
2006,09,27,14,44,18.80
2006,09,27,14,45,18.80
2006,09,27,14,46,18.90
2006,09,27,14,47,19.00
2006,09,27,14,48,19.10
2006,09,27,14,49,19.10
2006,09,27,14,50,19.10
2006,09,27,14,51,19.20
2006,09,27,14,52,19.30
2006,09,27,14,53,19.40
2006,09,27,14,54,19.60
2006,09,27,14,55,19.70
2006,09,27,14,56,19.70
2006,09,27,14,57,19.70
2006,09,27,14,58,19.70
2006,09,27,14,59,19.60
2006,09,27,15,00,19.60
2006,09,27,15,01,19.50
2006,09,27,15,02,19.30
2006,09,27,15,03,19.20
2006,09,27,15,04,19.20
2006,09,27,15,05,19.20
2006,09,27,15,06,19.30
2006,09,27,15,07,19.30
2006,09,27,15,08,19.40
2006,09,27,15,09,19.40
2006,09,27,15,10,19.30
2006,09,27,15,11,19.20
2006,09,27,15,12,19.10
2006,09,27,15,13,19.10
2006,09,27,15,14,19.10
2006,09,27,15,15,19.30
2006,09,27,15,16,19.50
2006,09,27,15,17,19.70
2006,09,27,15,18,19.80
2006,09,27,15,19,19.90
2006,09,27,15,20,20.00
2006,09,27,15,21,20.20
2006,09,27,15,22,20.20
2006,09,27,15,23,20.20
2006,09,27,15,24,20.20
2006,09,27,15,25,20.10
2006,09,27,15,26,19.90
2006,09,27,15,27,19.90
2006,09,27,15,28,19.60
2006,09,27,15,29,19.40
2006,09,27,15,30,19.20
2006,09,27,15,31,19.30
2006,09,27,15,32,19.30
2006,09,27,15,33,19.20
2006,09,27,15,34,19.20
2006,09,27,15,35,19.30
2006,09,27,15,36,19.40
2006,09,27,15,37,19.60
2006,09,27,15,38,19.60
2006,09,27,15,39,19.70
2006,09,27,15,40,19.70
2006,09,27,15,41,19.80
2006,09,27,15,42,19.80
2006,09,27,15,43,19.80
2006,09,27,15,44,19.90
2006,09,27,15,45,19.90
2006,09,27,15,46,19.90
2006,09,27,15,47,20.00
2006,09,27,15,48,20.20
2006,09,27,15,49,20.40
2006,09,27,15,50,20.40
2006,09,27,15,51,20.50
2006,09,27,15,52,20.60
2006,09,27,15,53,20.70
2006,09,27,15,54,20.60
2006,09,27,15,55,20.50
2006,09,27,15,56,20.40
2006,09,27,15,57,20.30
2006,09,27,15,58,20.30
2006,09,27,15,59,20.30
2006,09,27,16,00,20.30
2006,09,27,16,01,20.40
2006,09,27,16,02,20.40
2006,09,27,16,03,20.30
2006,09,27,16,04,20.30
2006,09,27,16,05,20.20
2006,09,27,16,06,20.20
2006,09,27,16,07,20.30
2006,09,27,16,08,20.30
2006,09,27,16,09,20.30
2006,09,27,16,10,20.20
2006,09,27,16,11,20.20
2006,09,27,16,12,20.20
2006,09,27,16,13,20.20
2006,09,27,16,14,20.20
2006,09,27,16,15,20.20
2006,09,27,16,16,20.20
2006,09,27,16,17,20.20
2006,09,27,16,18,20.30
2006,09,27,16,19,20.40
2006,09,27,16,20,20.50
2006,09,27,16,21,20.50
2006,09,27,16,22,20.50
2006,09,27,16,23,20.60
2006,09,27,16,24,20.60
2006,09,27,16,25,20.60
2006,09,27,16,26,20.70
2006,09,27,16,27,20.60
2006,09,27,16,28,20.60
2006,09,27,16,29,20.70
2006,09,27,16,30,20.70
2006,09,27,16,31,20.60
2006,09,27,16,32,20.70
2006,09,27,16,33,20.70
2006,09,27,16,34,20.60
2006,09,27,16,35,20.60
2006,09,27,16,36,20.50
2006,09,27,16,37,20.50
2006,09,27,16,38,20.50
2006,09,27,16,39,20.50
2006,09,27,16,40,20.50
2006,09,27,16,41,20.50
2006,09,27,16,42,20.50
2006,09,27,16,43,20.50
2006,09,27,16,44,20.50
2006,09,27,16,45,20.50
2006,09,27,16,46,20.50
2006,09,27,16,47,20.50
2006,09,27,16,48,20.50
2006,09,27,16,49,20.50
2006,09,27,16,50,20.50
2006,09,27,16,51,20.50
2006,09,27,16,52,20.60
2006,09,27,16,53,20.60
2006,09,27,16,54,20.60
2006,09,27,16,55,20.70
2006,09,27,16,56,20.80
2006,09,27,16,57,20.80
2006,09,27,16,58,20.90
2006,09,27,16,59,20.90
2006,09,27,17,00,20.90
2006,09,27,17,01,20.90
2006,09,27,17,02,20.90
2006,09,27,17,03,21.00
2006,09,27,17,04,21.00
2006,09,27,17,05,21.10
2006,09,27,17,06,21.10
2006,09,27,17,07,21.10
2006,09,27,17,08,21.10
2006,09,27,17,09,21.20
2006,09,27,17,10,21.20
2006,09,27,17,11,21.20
2006,09,27,17,12,21.20
2006,09,27,17,13,21.30
2006,09,27,17,14,21.30
2006,09,27,17,15,21.30
2006,09,27,17,16,21.40
2006,09,27,17,17,21.50
2006,09,27,17,18,21.60
2006,09,27,17,19,21.60